Wetbulb
59.39 59.27 59.14 59.09 59.25 59.29 59.36 59.66 59.62 59.55 59.59 59.97 59.45 59.19 60.19 60.63 60.51 58.38 51.78 60.11 60.70 70.01 72.04 65.98 66.57 64.70 65.76 63.82 67.38 65.09 59.66 56.46 56.54 56.79 58.34 63.01 60.75 64.77 67.04 63.02 65.20 65.61 65.00 67.12 69.80
59.21 58.90 58.82 58.83 59.26 59.83 59.92 59.52 59.29 59.31 58.51 59.06 59.03 58.82 60.15 60.68 57.98 53.74 63.73 68.21 69.99 72.41 64.41 60.46 58.62 60.60 58.29 61.15 65.07 62.50 59.16 57.08 60.68 61.31 60.31 63.02 62.40 62.80 63.62 62.97 62.99 64.27 66.88 68.69 69.33
59.51 59.43 59.42 59.58 59.91 60.01 59.91 60.02 59.27 58.94 58.25 58.87 59.25 59.38 60.10 60.55 54.96 53.60 68.32 72.17 74.56 69.28 59.43 57.95 57.95 57.03 55.35 62.57 62.95 61.66 59.55 62.36 62.17 62.80 64.10 62.45 62.73 64.86 62.95 60.84 63.24 62.53 65.24 67.45 68.24
58.87 58.80 58.98 59.16 59.45 59.48 59.65 59.60 58.98 58.57 57.96 58.77 59.29 59.87 60.20 58.85 52.40 59.95 71.62 70.86 71.81 63.91 57.36 56.82 56.58 56.21 58.73 61.30 64.72 60.84 63.91 63.59 63.04 63.82 62.63 62.32 63.57 62.88 63.23 63.31 65.95 66.25 67.34 67.67 67.40
58.51 58.43 58.40 58.60 58.26 58.28 58.74 58.84 58.16 58.02 57.71 59.13 59.53 59.85 59.58 52.63 51.22 67.73 73.72 71.20 67.29 58.42 56.19 57.20 56.73 61.60 61.13 62.46 63.42 61.79 62.87 63.95 64.19 64.12 63.86 63.74 61.58 62.13 62.66 65.65 66.79 66.69 67.23 67.10 67.50
58.14 58.15 58.03 57.96 57.53 57.63 57.21 56.82 56.62 57.09 57.57 59.27 59.71 59.84 58.45 48.03 56.39 67.75 68.00 62.66 59.08 56.95 56.49 57.43 57.32 63.51 62.87 62.45 62.45 63.50 63.53 62.82 63.56 63.22 63.34 61.45 60.96 63.05 63.81 65.42 64.52 65.83 66.17 67.10 67.44
57.59 57.78 57.78 57.67 56.98 56.89 56.37 55.86 55.94 56.72 58.43 59.34 60.10 60.36 56.68 53.89 62.19 65.45 62.88 58.21 57.97 57.47 55.63 57.15 65.09 58.90 64.29 62.20 63.93 62.47 59.71 61.63 61.89 62.05 61.31 62.43 58.49 58.30 63.82 65.29 63.84 65.09 66.07 66.79 67.49
57.17 57.26 57.34 57.42 56.88 56.69 55.66 54.95 55.96 58.63 59.20 60.37 60.85 59.53 53.92 59.54 62.36 61.22 57.74 56.07 57.11 57.48 57.46 58.74 64.80 64.77 63.57 64.75 61.33 57.93 60.11 56.28 60.71 61.80 61.65 61.28 54.89 61.82 63.46 63.53 63.56 63.79 65.37 66.00 67.23
57.26 57.16 57.06 57.04 57.07 56.09 55.19 55.60 58.63 60.39 61.05 61.42 59.20 58.23 53.98 63.15 60.86 61.38 58.29 55.49 55.29 56.41 57.71 59.26 64.78 63.21 62.66 59.21 56.88 56.42 51.51 54.86 57.07 62.51 60.50 59.87 56.86 61.61 63.13 62.17 62.79 64.57 65.63 65.95 66.71
56.82 56.79 56.79 56.87 55.90 54.95 54.97 56.10 62.12 61.18 60.84 61.27 60.23 55.06 57.46 55.90 60.93 59.73 57.84 56.18 55.03 54.42 54.66 54.96 58.01 58.71 59.47 56.59 48.37 49.42 50.15 54.04 55.20 59.68 60.12 58.78 58.71 60.42 62.80 61.95 62.54 64.54 65.46 65.77 66.37
56.69 56.53 56.30 56.20 54.99 54.24 56.13 58.15 54.77 54.18 57.99 56.15 55.95 53.91 55.41 59.59 60.87 58.70 57.38 57.02 55.62 54.41 51.45 52.85 51.79 50.57 53.29 57.34 54.64 53.71 52.69 52.25 57.30 60.34 59.46 58.44 58.71 60.37 62.15 61.96 61.82 63.70 64.98 65.45 65.98
56.51 56.22 56.08 55.55 54.83 54.38 53.78 51.62 55.90 56.75 53.03 56.27 57.03 56.47 57.70 58.87 55.62 56.46 58.42 56.07 55.48 51.19 50.68 50.52 50.05 53.45 53.80 57.08 55.93 54.16 51.29 52.11 56.97 60.46 59.60 58.51 58.25 61.19 62.14 61.74 62.44 62.57 64.17 65.13 65.85
56.24 56.10 55.63 54.64 54.16 54.20 54.73 55.37 58.05 56.97 52.27 51.96 53.77 55.05 56.03 57.33 54.53 55.94 57.71 54.39 53.73 50.27 49.10 49.81 51.12 52.97 52.61 51.61 51.12 52.04 50.77 51.87 53.60 58.88 59.84 58.11 57.13 59.06 61.90 62.94 63.21 63.75 64.53 65.19 65.46
56.08 55.92 55.07 53.04 53.64 54.32 56.14 58.18 58.10 57.21 47.85 48.47 50.67 54.24 56.91 57.08 53.63 58.62 58.87 56.52 50.95 50.38 48.49 49.01 51.78 49.46 48.97 48.49 51.67 48.71 53.26 53.53 55.78 55.15 50.58 57.72 49.07 56.57 58.24 60.37 61.74 62.73 63.06 63.57 65.19
55.98 55.53 53.99 52.95 52.19 54.90 56.12 57.32 57.14 53.24 39.14 48.27 51.87 58.26 56.87 54.93 54.96 53.85 56.02 55.68 50.44 49.39 49.36 48.88 48.37 49.32 49.83 49.70 51.82 49.44 56.54 54.27 56.34 55.04 53.69 53.50 51.78 54.80 56.54 57.00 59.73 62.31 62.77 63.74 65.27
55.35 54.68 53.70 52.94 53.47 56.15 57.29 57.07 53.44 46.10 38.56 48.40 52.49 52.15 52.52 53.83 51.57 52.80 54.02 55.53 53.74 49.57 48.44 49.63 50.75 50.07 50.34 51.16 52.97 54.93 57.16 57.04 56.73 55.71 49.30 51.34 52.12 51.85 55.39 58.15 59.69 62.20 63.74 63.85 64.86
53.97 52.92 52.62 54.36 55.72 56.53 57.52 53.12 46.39 40.62 47.94 47.03 47.56 51.58 51.45 51.46 51.04 51.66 50.88 50.04 48.51 45.44 45.72 48.25 48.52 51.07 51.00 49.38 52.11 54.55 53.65 47.59 46.96 48.61 45.33 52.23 51.60 53.48 57.53 59.16 60.28 60.70 62.49 64.53 65.29
52.34 51.17 52.44 54.08 56.02 56.26 55.97 49.88 40.97 43.61 45.34 49.49 49.84 48.98 49.30 51.01 51.75 49.99 49.93 48.46 49.58 47.68 45.71 44.52 43.26 48.56 51.13 50.37 48.91 50.95 51.21 45.72 39.95 43.58 45.70 51.95 49.12 52.73 57.97 60.03 62.09 62.21 63.00 64.71 65.20
51.38 55.40 55.21 57.87 56.97 56.05 52.79 44.65 44.58 43.62 48.32 48.71 49.47 45.97 47.46 49.64 50.20 50.30 49.72 50.06 51.05 50.11 46.16 44.35 44.68 49.60 49.67 50.49 51.94 49.36 48.57 51.56 47.11 48.00 46.63 49.09 52.59 56.37 59.24 60.05 60.95 61.50 62.61 63.44 64.89
53.71 56.19 56.96 57.90 57.41 55.42 51.91 42.91 46.25 47.92 51.43 50.24 45.91 47.67 45.75 47.75 48.10 48.36 48.75 51.10 50.69 50.66 53.24 49.43 45.26 49.23 49.77 50.69 51.04 50.92 52.19 46.63 48.61 41.99 40.92 47.00 49.38 50.66 55.47 59.14 60.58 61.04 62.65 64.02 65.01
54.61 55.80 58.55 58.75 56.07 54.60 48.99 47.80 48.50 51.98 51.79 50.64 47.79 47.89 48.17 48.00 48.58 46.91 48.23 50.39 51.07 50.33 51.84 50.76 48.14 47.59 48.85 48.63 48.99 49.01 48.36 49.51 50.69 49.44 45.47 43.76 47.36 56.68 57.29 60.28 61.09 62.53 63.48 64.81 65.49
53.89 52.56 59.34 57.37 51.94 48.25 49.16 48.50 47.45 52.57 54.26 51.98 51.08 50.44 49.23 49.06 48.54 48.26 47.55 49.91 51.19 50.28 47.85 50.95 49.50 46.30 47.87 50.17 50.55 51.50 50.38 50.80 46.50 46.05 49.32 48.45 48.13 57.95 59.20 60.31 62.10 62.87 63.74 65.31 66.26
52.94 53.02 59.51 56.51 48.97 49.85 50.79 50.82 52.04 52.05 52.17 52.10 50.54 51.97 51.55 49.39 47.76 49.58 50.11 52.92 52.16 50.50 49.69 49.85 47.95 44.50 46.05 47.68 49.71 48.63 49.43 50.71 50.73 51.09 49.48 46.12 48.23 57.85 60.02 60.80 61.56 62.06 63.82 65.04 66.49
53.95 52.00 54.53 54.31 51.78 49.89 48.25 48.77 49.46 53.17 52.28 52.65 51.97 52.65 51.25 47.94 49.53 47.58 48.93 50.94 53.45 51.88 57.98 54.18 48.40 47.61 44.65 47.74 50.47 49.39 48.24 49.52 50.59 47.77 48.52 49.42 51.35 55.47 58.24 60.65 61.85 63.06 64.41 65.29 66.27
51.02 48.33 48.57 48.46 49.25 49.09 48.74 48.35 47.98 48.51 52.41 53.08 51.24 51.08 49.95 47.19 49.00 47.08 50.50 52.05 53.96 57.57 55.04 50.70 48.37 48.29 48.99 49.48 49.14 50.00 50.59 48.89 49.91 51.53 48.89 51.02 52.04 55.33 58.73 61.33 62.72 64.72 64.79 65.03 65.74
48.47 47.19 49.06 46.20 46.55 47.42 45.79 47.15 47.17 48.20 49.08 49.35 49.29 50.02 50.35 48.59 49.79 48.26 50.28 50.80 50.20 53.51 52.36 49.99 48.93 46.80 47.34 49.36 47.99 47.46 50.38 50.32 50.92 51.37 52.04 52.58 53.78 59.57 59.76 62.48 62.32 63.71 64.52 64.96 65.63
51.82 52.01 49.80 43.65 45.91 45.79 46.03 45.16 46.35 47.07 49.46 51.53 49.83 49.49 49.93 50.15 51.37 53.25 53.89 53.66 53.03 51.36 50.93 50.50 50.08 48.08 46.40 49.61 47.99 45.72 49.45 50.85 52.11 54.02 54.72 51.33 56.27 58.71 59.84 61.30 62.96 64.01 65.08 65.22 66.19
MSLP
1017.04 1016.81 1016.54 1016.23 1015.90 1015.53 1015.24 1015.01 1014.74 1014.51 1014.23 1013.94 1013.78 1013.63 1013.44 1013.31 1013.08 1012.92 1011.33 1009.36 1009.35 1009.69 1010.10 1010.48 1010.65 1010.57 1010.53 1010.51 1010.77 1011.06 1011.11 1011.04 1011.14 1011.48 1011.66 1012.00 1011.97 1011.80 1011.52 1011.78 1011.95 1012.54 1012.82 1013.25 1014.25
1017.01 1016.72 1016.40 1016.11 1015.73 1015.36 1014.99 1014.76 1014.59 1014.29 1014.12 1013.90 1013.74 1013.62 1013.41 1013.20 1012.62 1011.28 1009.17 1009.01 1009.22 1009.46 1009.70 1009.80 1010.00 1010.28 1010.24 1010.44 1010.70 1010.74 1010.96 1010.81 1011.02 1011.15 1011.22 1011.64 1011.64 1011.45 1011.40 1011.64 1012.05 1012.79 1013.44 1013.82 1014.45
1016.96 1016.63 1016.25 1015.88 1015.53 1015.19 1014.82 1014.47 1014.26 1014.11 1013.89 1013.70 1013.61 1013.49 1013.33 1013.12 1011.91 1009.30 1008.81 1008.89 1009.10 1009.26 1009.29 1009.42 1009.60 1009.81 1009.94 1010.35 1010.56 1010.75 1010.72 1010.83 1010.96 1011.06 1011.14 1011.45 1011.59 1011.35 1011.09 1011.40 1011.59 1012.26 1013.33 1013.92 1014.51
1016.91 1016.57 1016.20 1015.76 1015.32 1015.02 1014.70 1014.31 1014.01 1013.84 1013.73 1013.47 1013.37 1013.29 1013.15 1012.77 1010.77 1008.88 1008.73 1008.83 1009.12 1009.24 1009.29 1009.34 1009.43 1009.47 1009.68 1009.94 1010.30 1010.57 1010.83 1011.01 1011.21 1011.13 1011.28 1011.38 1011.61 1011.41 1011.27 1011.37 1011.40 1012.21 1013.22 1013.86 1014.36
1016.91 1016.55 1016.14 1015.71 1015.24 1014.80 1014.40 1014.09 1013.83 1013.58 1013.46 1013.25 1013.23 1013.13 1013.01 1011.70 1009.34 1008.65 1008.42 1008.86 1009.24 1009.33 1009.01 1009.07 1009.12 1009.29 1009.48 1010.02 1010.37 1010.56 1010.90 1011.27 1011.40 1011.40 1011.34 1011.50 1011.91 1011.86 1011.59 1011.62 1011.89 1012.54 1013.27 1013.77 1014.09
1016.79 1016.44 1016.05 1015.58 1015.12 1014.66 1014.21 1013.78 1013.58 1013.35 1013.18 1013.05 1013.02 1012.98 1012.26 1010.39 1008.53 1008.67 1008.66 1008.96 1008.79 1008.98 1008.93 1008.97 1008.85 1009.28 1009.76 1010.28 1010.53 1010.96 1011.23 1011.51 1011.60 1011.64 1011.68 1011.69 1011.93 1011.70 1012.09 1012.11 1012.41 1012.64 1013.11 1013.60 1013.89
1016.65 1016.25 1015.87 1015.44 1014.97 1014.49 1014.09 1013.63 1013.23 1013.05 1012.85 1012.83 1012.83 1012.68 1011.57 1009.26 1008.57 1008.79 1008.89 1008.78 1008.83 1008.80 1008.73 1008.85 1009.01 1009.18 1009.86 1010.30 1011.04 1011.10 1011.29 1011.58 1011.75 1011.81 1011.89 1011.94 1012.19 1012.10 1012.30 1012.29 1012.60 1012.69 1013.08 1013.37 1013.76
1016.51 1016.09 1015.68 1015.25 1014.76 1014.22 1013.76 1013.38 1012.93 1012.64 1012.64 1012.68 1012.72 1012.33 1010.22 1008.63 1008.62 1008.77 1008.79 1008.87 1009.05 1009.09 1008.95 1008.99 1009.10 1009.50 1009.95 1010.56 1010.82 1010.89 1011.13 1011.12 1011.52 1011.82 1011.96 1011.96 1011.45 1011.58 1012.21 1012.36 1012.48 1012.70 1012.85 1013.10 1013.56
1016.27 1015.75 1015.38 1014.93 1014.50 1014.00 1013.46 1013.04 1012.57 1012.45 1012.53 1012.63 1012.51 1011.71 1009.25 1008.57 1008.40 1008.14 1008.33 1008.36 1008.87 1009.13 1009.12 1009.14 1009.19 1009.70 1010.21 1010.01 1010.31 1010.65 1010.37 1010.71 1011.17 1011.49 1011.66 1012.01 1011.09 1011.27 1011.98 1012.24 1012.38 1012.37 1012.49 1012.58 1012.94
1016.06 1015.57 1015.06 1014.60 1014.15 1013.70 1013.18 1012.97 1012.60 1012.48 1012.67 1012.53 1011.98 1011.39 1008.74 1007.80 1007.59 1007.90 1008.31 1008.30 1008.38 1008.89 1009.03 1009.14 1009.31 1009.43 1009.76 1009.52 1009.32 1009.82 1009.87 1010.21 1010.41 1010.92 1011.34 1011.37 1010.93 1011.08 1011.46 1011.86 1011.76 1011.80 1012.03 1012.10 1012.16
1015.92 1015.39 1014.86 1014.41 1013.94 1013.52 1013.05 1012.90 1012.90 1012.43 1011.87 1010.16 1009.56 1008.76 1007.77 1007.39 1007.34 1007.59 1007.96 1008.06 1008.23 1008.65 1008.67 1009.07 1008.84 1008.38 1008.67 1008.94 1009.25 1009.56 1009.69 1009.72 1009.90 1010.24 1010.77 1010.73 1010.58 1010.46 1010.80 1011.22 1010.99 1011.13 1011.28 1011.47 1011.47
1015.67 1015.15 1014.63 1014.12 1013.76 1013.48 1013.28 1011.99 1011.33 1011.20 1010.24 1008.92 1008.76 1008.29 1007.75 1007.39 1007.24 1007.50 1007.78 1007.88 1008.15 1008.28 1008.79 1008.94 1008.02 1008.27 1008.64 1008.88 1009.07 1009.12 1009.13 1009.17 1009.68 1010.01 1010.46 1010.36 1009.84 1009.56 1009.72 1009.66 1009.85 1010.20 1010.50 1010.71 1011.09
1015.45 1014.93 1014.36 1013.81 1013.35 1013.35 1012.60 1011.38 1011.04 1010.80 1010.10 1008.37 1008.03 1007.48 1007.15 1007.33 1007.02 1006.91 1007.33 1007.35 1007.68 1008.26 1008.36 1008.03 1008.02 1008.13 1008.22 1008.49 1008.54 1008.40 1008.59 1008.83 1009.23 1009.83 1010.19 1010.10 1008.81 1008.46 1008.52 1008.79 1009.00 1009.29 1009.60 1009.99 1010.49
1015.12 1014.74 1014.19 1013.58 1013.34 1012.74 1011.64 1011.09 1010.93 1010.78 1009.64 1007.95 1007.35 1006.54 1006.71 1006.56 1006.61 1006.33 1006.64 1006.75 1007.56 1007.79 1008.39 1008.20 1007.89 1008.02 1008.00 1007.98 1008.16 1007.67 1008.31 1008.53 1009.02 1009.32 1009.37 1009.68 1008.40 1007.60 1007.56 1007.78 1008.08 1008.07 1008.72 1009.17 1009.83
1014.84 1014.38 1014.10 1014.01 1013.41 1012.26 1011.40 1011.10 1010.85 1010.52 1008.70 1007.09 1006.62 1006.38 1006.33 1006.04 1006.00 1006.41 1006.45 1006.71 1006.99 1007.52 1008.18 1007.53 1007.50 1007.38 1007.35 1007.09 1007.83 1007.69 1008.05 1008.26 1008.82 1009.14 1009.13 1009.08 1008.77 1006.73 1007.24 1006.86 1006.84 1007.05 1007.42 1008.03 1008.60
1014.41 1013.95 1013.68 1013.50 1013.18 1011.45 1011.15 1010.90 1010.60 1009.76 1007.65 1006.38 1006.14 1006.08 1006.09 1005.85 1005.80 1006.16 1006.38 1006.56 1007.14 1007.50 1007.73 1007.30 1007.42 1007.13 1006.36 1006.89 1007.26 1007.59 1008.05 1008.45 1008.87 1008.92 1008.45 1008.16 1007.89 1005.97 1005.90 1005.68 1005.63 1005.89 1006.28 1007.00 1007.93
1013.48 1013.15 1013.20 1012.60 1011.71 1011.38 1010.98 1010.33 1009.90 1008.70 1007.32 1006.67 1006.08 1005.87 1005.76 1005.58 1005.67 1005.78 1006.03 1006.26 1006.55 1007.14 1006.95 1006.91 1006.62 1006.41 1006.40 1006.48 1007.11 1007.19 1007.21 1007.34 1007.74 1008.06 1007.21 1007.76 1007.30 1005.21 1005.15 1005.11 1005.03 1005.07 1005.33 1006.13 1007.10
1012.74 1012.28 1012.47 1012.06 1011.59 1011.40 1010.42 1009.82 1009.02 1008.05 1007.37 1006.86 1006.31 1005.92 1005.57 1005.40 1005.37 1005.54 1005.82 1006.04 1006.53 1006.55 1006.48 1006.12 1005.61 1005.55 1005.46 1005.39 1005.53 1006.24 1006.28 1006.16 1006.34 1006.90 1006.59 1007.20 1005.81 1004.16 1004.51 1004.74 1004.70 1004.82 1005.03 1005.74 1006.58
1012.29 1012.08 1012.00 1011.42 1011.30 1011.35 1010.23 1009.37 1008.62 1008.27 1007.85 1007.21 1006.43 1006.04 1005.70 1005.42 1005.22 1005.25 1005.28 1005.15 1005.27 1005.80 1005.81 1005.57 1005.12 1004.76 1004.73 1004.82 1004.97 1006.03 1006.15 1005.82 1006.03 1006.92 1006.46 1005.62 1004.91 1004.06 1004.09 1004.26 1004.53 1004.80 1005.16 1005.60 1006.19
1012.41 1011.79 1011.50 1011.33 1011.24 1010.61 1009.87 1009.44 1009.22 1008.84 1008.16 1007.67 1007.08 1006.78 1006.12 1005.74 1005.52 1005.31 1005.03 1004.33 1004.40 1004.66 1004.53 1004.93 1004.84 1004.35 1004.28 1004.67 1005.10 1004.83 1005.00 1005.54 1005.70 1005.55 1005.14 1004.83 1004.41 1003.53 1003.58 1003.88 1004.39 1004.63 1005.00 1005.50 1006.20
1012.13 1011.45 1011.20 1011.18 1010.99 1010.22 1010.03 1009.97 1009.53 1008.93 1008.68 1008.09 1007.65 1007.32 1006.91 1006.43 1005.94 1005.30 1004.58 1004.14 1003.90 1003.91 1004.33 1004.37 1004.74 1004.41 1004.44 1003.97 1003.68 1004.74 1004.56 1004.92 1005.07 1005.19 1004.31 1004.02 1003.23 1003.05 1003.16 1003.43 1003.89 1004.31 1004.92 1005.41 1005.95
1012.41 1011.45 1011.03 1010.82 1010.85 1011.40 1010.79 1010.63 1010.06 1009.20 1008.82 1008.46 1008.28 1007.99 1007.59 1007.16 1006.41 1005.77 1004.83 1004.10 1003.89 1004.04 1004.14 1004.16 1003.96 1003.68 1003.60 1003.67 1003.84 1003.70 1003.44 1003.74 1003.69 1004.48 1004.63 1004.10 1003.13 1002.92 1003.14 1003.40 1003.72 1004.19 1004.78 1005.39 1005.95
1013.52 1012.71 1011.33 1010.97 1011.31 1011.68 1011.48 1010.90 1010.38 1009.67 1009.27 1008.91 1008.72 1008.65 1008.39 1007.87 1007.33 1006.25 1005.27 1004.16 1003.97 1003.88 1003.59 1003.91 1003.71 1003.42 1002.97 1003.59 1003.71 1003.19 1003.22 1002.97 1003.14 1003.41 1003.57 1003.18 1002.51 1002.86 1003.18 1003.42 1003.62 1004.01 1004.75 1005.58 1006.08
1014.21 1013.44 1012.54 1012.37 1013.17 1012.70 1012.43 1011.66 1010.90 1010.40 1009.99 1009.79 1009.34 1009.11 1008.93 1008.45 1008.02 1007.04 1005.95 1004.89 1004.57 1004.11 1003.78 1003.68 1003.12 1002.58 1001.75 1001.69 1001.92 1002.45 1002.53 1002.80 1001.98 1002.22 1002.40 1002.33 1001.90 1002.08 1002.88 1003.11 1003.51 1004.07 1004.66 1005.45 1006.02
1015.34 1015.77 1015.77 1014.42 1013.89 1013.74 1013.34 1012.72 1011.90 1011.26 1010.95 1010.55 1010.12 1010.02 1009.87 1009.16 1008.47 1007.85 1007.08 1006.15 1004.96 1004.44 1004.17 1003.85 1003.00 1002.78 1001.87 1001.62 1001.89 1001.70 1001.59 1001.84 1001.66 1001.27 1001.54 1001.17 1001.73 1001.29 1002.19 1002.40 1003.09 1003.70 1004.55 1005.24 1005.83
1016.83 1016.94 1016.49 1015.75 1015.31 1014.58 1014.22 1013.85 1013.23 1012.84 1012.49 1011.44 1011.16 1010.93 1010.51 1010.02 1009.48 1008.83 1008.37 1007.49 1006.37 1005.45 1004.81 1004.34 1003.23 1002.97 1002.08 1001.69 1001.63 1001.44 1001.37 1001.42 1001.31 1001.46 1001.47 1001.26 1001.15 1001.06 1001.94 1002.72 1003.23 1003.73 1004.31 1004.87 1005.44
1018.07 1017.90 1017.34 1016.67 1015.81 1015.28 1014.95 1014.83 1014.41 1014.28 1013.10 1012.59 1012.44 1011.88 1010.86 1010.62 1010.43 1009.47 1008.98 1008.19 1007.42 1007.03 1006.04 1005.03 1003.84 1003.45 1002.41 1002.25 1002.03 1001.68 1000.94 1000.96 1000.71 1000.76 1000.49 1000.64 1000.25 1001.09 1001.62 1002.16 1002.58 1003.21 1003.80 1004.25 1004.93
Wind_Speed
14 14 13 13 13 13 13 13 12 11 11 10 9 9 9 9 8 3 6 5 5 12 9 10 5 4 2 2 1 1 0 2 2 4 3 6 4 3 3 8 4 4 2 6 15
14 14 13 13 13 14 14 14 13 13 11 10 8 8 8 8 3 7 5 7 9 14 8 8 6 7 3 2 2 2 1 1 1 2 3 7 3 7 6 6 3 7 11 14 14
14 14 15 15 15 14 14 14 14 13 11 10 7 7 7 5 3 2 10 11 12 8 4 4 6 4 3 2 3 2 2 3 1 3 8 5 4 3 6 3 3 8 13 13 13
15 15 15 16 16 16 15 14 14 13 10 9 7 6 6 3 4 4 10 13 9 7 7 5 4 3 2 2 1 2 4 3 2 4 6 3 3 4 3 2 3 12 13 12 12
15 15 16 16 17 17 16 15 14 13 10 8 5 4 4 3 5 4 11 13 9 7 5 5 4 3 2 2 2 1 1 5 4 5 4 4 6 2 4 5 10 14 13 11 10
16 15 15 16 17 17 17 17 15 12 9 6 3 3 2 4 3 5 12 12 10 6 5 4 2 3 5 3 1 4 7 5 3 5 4 4 3 3 4 7 10 13 12 11 11
17 16 15 16 17 17 17 18 16 11 7 4 4 3 1 8 3 7 10 4 6 4 4 3 2 2 4 5 4 2 4 4 3 1 2 4 1 4 4 9 10 12 10 10 9
17 17 17 16 16 18 19 17 13 7 3 4 4 2 6 1 4 7 4 4 1 1 1 3 6 7 2 7 3 2 2 2 4 4 3 5 6 11 7 5 9 10 11 11 11
17 18 18 17 17 18 18 15 7 3 6 7 3 2 5 3 4 6 6 5 6 2 1 4 2 4 4 4 3 0 4 2 2 8 3 6 3 4 9 6 9 11 12 11 11
18 18 18 18 19 17 13 5 9 8 4 3 1 3 5 3 4 6 4 8 4 6 3 2 3 3 3 5 3 2 5 2 4 8 7 8 11 1 12 11 11 13 13 13 13
18 19 19 18 20 16 0 4 3 3 3 6 3 2 1 3 5 4 4 7 4 3 6 3 7 13 9 9 2 3 5 7 2 5 9 11 11 11 10 15 15 13 14 15 16
19 19 19 19 16 8 2 3 4 3 6 10 10 8 5 1 2 3 9 9 7 8 4 5 15 7 4 6 7 6 8 7 1 5 10 5 15 16 14 19 19 18 17 17 14
19 19 19 20 20 3 3 1 3 1 4 4 5 6 5 10 5 7 13 7 8 8 8 11 2 9 7 5 7 9 9 7 4 5 5 7 9 8 11 17 15 19 19 18 17
20 18 17 24 2 3 2 4 6 4 3 3 4 4 6 7 6 6 11 9 4 12 5 7 6 6 4 7 8 13 4 9 7 6 4 2 6 6 5 12 17 17 19 17 17
19 18 15 8 6 4 4 6 2 4 3 3 3 3 2 11 6 6 5 6 10 8 7 7 6 13 17 16 8 5 4 1 4 3 5 4 5 3 2 7 17 18 18 19 18
19 17 14 3 3 4 6 5 3 3 5 3 4 4 9 5 3 5 6 3 2 6 4 13 1 5 15 6 9 6 8 8 5 1 4 2 4 7 3 4 3 12 19 20 19
22 16 4 2 0 6 7 3 3 4 2 3 2 3 9 10 5 6 12 13 10 8 11 9 13 9 4 7 4 7 6 1 2 2 4 1 5 10 5 9 11 9 13 19 19
24 9 6 3 4 8 2 3 5 0 2 2 3 2 10 8 8 6 11 12 10 3 3 11 10 10 10 15 8 12 8 4 5 5 5 2 6 4 2 7 6 4 7 13 18
16 1 2 4 3 3 2 5 3 3 2 6 4 1 4 5 4 8 10 16 12 16 7 6 6 2 7 6 10 7 7 1 3 1 5 2 6 11 3 4 2 2 6 11 16
2 1 5 6 3 2 1 1 0 2 4 1 2 2 0 1 5 8 10 6 11 18 21 7 7 5 2 6 3 6 11 5 3 5 7 3 5 6 4 6 4 4 6 8 11
1 2 2 1 3 2 1 0 2 3 3 3 1 2 2 2 1 3 4 3 7 9 16 10 6 3 1 10 14 6 6 2 2 3 4 4 5 3 5 6 9 7 7 7 10
2 3 4 3 2 1 2 3 4 3 2 2 2 4 4 2 4 5 5 5 3 9 12 11 9 13 18 1 1 4 7 14 9 8 1 4 5 2 4 6 5 5 7 6 8
3 3 2 4 2 2 2 2 2 3 4 3 2 3 2 3 4 7 7 8 6 10 10 10 8 7 6 7 3 5 7 8 5 4 7 6 5 4 3 6 8 6 7 7 8
1 1 4 4 2 3 4 2 4 3 2 4 2 1 3 2 1 5 4 5 12 6 5 11 6 10 9 7 4 6 8 11 12 6 7 9 12 7 6 6 7 7 9 10 10
5 3 2 3 3 3 2 1 3 3 3 4 2 6 5 4 4 2 4 9 8 5 4 9 9 8 14 11 8 11 11 15 13 11 10 11 10 15 8 11 11 10 10 11 11
3 3 2 2 4 4 3 3 4 4 4 3 4 11 7 5 4 7 8 4 5 6 5 3 6 3 6 3 10 13 11 15 13 7 4 5 8 7 3 5 9 10 11 11 10
2 1 2 2 2 3 1 2 1 8 5 6 8 11 9 3 12 16 13 15 15 12 7 5 4 5 7 1 5 5 15 16 13 11 11 9 11 7 7 11 13 13 12 12 11
Wind_Direction
3 1 358 353 350 345 342 339 337 331 316 307 308 313 315 316 301 188 233 224 172 158 143 141 171 158 157 144 120 121 285 347 332 183 144 152 174 200 95 125 100 47 78 119 136
4 358 351 344 337 334 333 334 334 330 320 304 299 304 309 322 263 236 258 185 183 152 139 167 167 163 150 138 143 205 256 311 231 189 196 170 150 158 156 136 105 90 97 128 142
353 345 339 336 335 335 332 330 331 329 323 309 299 294 302 306 256 206 162 175 158 171 159 163 130 180 156 170 161 158 319 330 41 151 145 147 154 127 145 158 193 155 145 147 153
351 346 341 338 336 335 329 328 327 326 319 310 300 296 300 254 181 95 167 185 172 166 145 140 159 189 145 134 168 276 37 25 75 147 163 137 135 114 125 86 158 145 151 154 168
345 342 339 338 337 333 328 328 325 320 313 305 289 281 261 219 257 35 160 160 154 166 185 174 183 166 129 129 139 233 70 49 109 122 112 96 70 48 178 101 120 138 152 169 176
343 340 338 340 337 333 330 328 323 316 303 287 260 254 243 229 66 116 139 148 162 166 176 190 220 132 102 66 62 67 86 101 105 107 112 126 30 128 90 130 137 151 170 181 186
342 339 338 338 338 332 328 323 318 312 285 237 199 233 219 249 66 133 150 179 168 167 168 200 127 85 144 120 111 111 105 117 121 138 120 145 181 185 115 157 160 170 181 196 196
339 338 337 334 328 327 326 320 311 296 185 166 173 224 253 172 94 156 170 110 139 82 20 115 110 98 32 122 119 186 185 262 166 193 168 256 240 202 166 157 194 184 187 208 203
335 333 332 326 325 327 323 318 296 163 140 150 175 268 258 126 216 172 186 146 128 124 74 105 64 81 146 170 173 279 323 257 192 203 186 232 296 161 174 177 206 206 206 212 217
333 332 328 329 332 331 315 280 121 115 130 216 250 248 233 196 160 151 170 153 126 126 136 167 84 159 150 202 278 306 320 276 242 192 213 217 254 229 188 198 215 218 208 215 225
332 330 327 331 333 339 295 130 189 159 219 218 192 251 279 115 154 174 166 154 121 151 190 177 216 223 221 217 228 280 291 301 260 179 197 234 263 243 205 207 218 215 210 213 222
329 327 329 330 331 331 268 245 92 13 292 233 244 270 267 21 139 153 163 168 178 203 160 178 227 222 188 222 239 252 286 288 178 157 204 243 259 246 228 224 216 212 210 215 219
325 326 328 331 322 184 265 248 51 204 257 285 198 224 222 186 222 195 183 159 170 185 205 220 280 173 192 212 241 249 266 277 289 132 214 279 269 231 231 230 232 224 220 217 214
322 326 328 330 241 337 246 122 329 201 285 222 222 238 159 157 218 185 177 163 157 208 182 244 228 220 183 247 236 276 226 251 202 203 288 253 299 267 226 230 224 229 213 210 209
318 321 325 330 319 231 94 327 126 212 293 103 141 101 144 188 123 175 168 166 186 173 191 212 213 221 241 249 216 284 50 249 188 198 287 184 254 270 225 232 229 224 216 211 205
318 316 320 163 216 268 321 316 200 225 243 60 123 162 165 196 133 111 165 143 114 166 228 247 242 228 225 218 194 135 103 95 103 247 252 93 247 281 216 224 234 223 216 207 200
323 312 247 225 246 328 305 191 189 234 354 41 74 160 191 189 179 164 175 186 193 195 219 229 233 243 203 240 140 195 189 219 190 197 279 98 227 264 252 264 261 277 223 207 200
326 328 178 232 285 335 223 172 207 345 288 341 340 262 201 169 210 158 168 194 215 177 163 219 227 202 190 215 215 194 228 233 254 222 283 147 237 267 172 300 288 271 226 198 199
319 89 142 327 249 196 201 202 221 206 329 338 317 107 183 200 233 187 194 214 211 199 226 186 245 223 205 172 185 157 206 238 136 106 268 259 259 265 256 215 227 170 179 192 195
7 34 33 350 135 270 136 197 291 262 323 306 312 8 114 183 218 202 188 205 215 202 212 198 263 243 157 162 81 223 144 170 195 227 256 214 277 280 240 194 202 184 200 189 193
32 85 17 313 280 47 139 235 295 266 285 281 299 296 271 325 284 228 223 214 216 200 204 197 232 202 212 208 195 159 192 112 116 280 258 283 298 200 227 193 188 187 204 192 189
343 77 15 301 80 30 83 335 336 334 359 336 290 283 264 285 281 254 255 252 158 150 175 202 213 236 246 213 270 217 227 212 220 197 266 305 277 152 220 185 202 163 187 186 182
46 325 5 299 69 65 354 321 289 338 350 355 337 352 7 264 252 235 258 277 244 185 177 173 222 229 221 185 150 210 194 207 143 134 192 253 272 160 224 217 225 175 155 166 163
18 27 16 50 28 29 5 9 316 357 285 341 297 110 337 258 236 292 278 300 341 256 201 175 203 218 232 225 161 182 187 204 206 204 204 236 269 245 192 204 197 165 145 155 159
10 62 27 7 55 358 268 290 279 307 360 351 179 31 342 286 304 279 323 321 301 318 173 206 238 213 243 252 216 246 195 182 210 203 211 239 218 252 202 184 188 157 141 146 152
25 353 17 31 317 316 11 53 354 349 317 329 354 335 317 268 323 312 340 332 292 339 325 281 243 193 266 325 233 241 237 200 210 196 222 198 230 238 141 140 161 165 154 151 162
31 84 309 32 343 275 79 24 41 346 278 279 354 327 293 351 315 288 271 267 270 289 291 287 234 182 248 337 156 239 228 203 193 196 191 186 217 161 181 193 176 168 174 167 166